Time,TemperatureF,DewpointF,PressureIn,WindDirection,WindDirectionDegrees,WindSpeedMPH,WindSpeedGustMPH,Humidity,HourlyPrecipIn,Conditions,Clouds,dailyrainin,SoftwareType,DateUTC
2013-10-23 00:00:00,73.5,68.0,29.79,West,267,0.0,0.0,83,0.00,,,0.01,Wunderground v.1.15,2013-10-23 04:00:00,
2013-10-23 00:05:00,73.4,67.9,29.79,West,267,0.0,0.0,83,0.00,,,0.00,Wunderground v.1.15,2013-10-23 04:05:00,
2013-10-23 00:15:00,73.2,67.7,29.79,West,267,0.0,0.0,83,0.00,,,0.00,Wunderground v.1.15,2013-10-23 04:15:00,
2013-10-23 00:20:00,73.1,67.6,29.79,West,267,0.0,0.0,83,0.00,,,0.00,Wunderground v.1.15,2013-10-23 04:20:00,
2013-10-23 00:25:00,73.0,67.5,29.79,West,267,0.0,0.0,83,0.00,,,0.00,Wunderground v.1.15,2013-10-23 04:25:00,
2013-10-23 00:30:00,72.9,67.4,29.79,West,267,0.0,0.0,83,0.00,,,0.00,Wunderground v.1.15,2013-10-23 04:30:00,
2013-10-23 00:35:00,72.9,67.4,29.79,West,267,0.0,0.0,83,0.00,,,0.00,Wunderground v.1.15,2013-10-23 04:35:00,
2013-10-23 00:40:00,72.8,67.3,29.79,West,267,0.0,0.0,83,0.00,,,0.00,Wunderground v.1.15,2013-10-23 04:40:00,
2013-10-23 00:45:00,72.7,67.2,29.79,West,267,0.0,0.0,83,0.00,,,0.00,Wunderground v.1.15,2013-10-23 04:45:00,
2013-10-23 00:50:00,72.7,67.2,29.79,West,267,0.0,0.0,83,0.00,,,0.00,Wunderground v.1.15,2013-10-23 04:50:00,
2013-10-23 00:55:00,72.7,67.2,29.79,West,267,0.0,0.0,83,0.00,,,0.00,Wunderground v.1.15,2013-10-23 04:55:00,
2013-10-23 01:00:00,72.6,67.1,29.79,West,267,0.0,0.0,83,0.00,,,0.00,Wunderground v.1.15,2013-10-23 05:00:00,
2013-10-23 01:05:00,72.5,67.0,29.80,West,267,0.0,0.0,83,0.00,,,0.00,Wunderground v.1.15,2013-10-23 05:05:00,
2013-10-23 01:10:00,72.4,66.9,29.79,West,267,0.0,0.0,83,0.00,,,0.00,Wunderground v.1.15,2013-10-23 05:10:00,
2013-10-23 01:15:00,72.3,66.8,29.79,West,267,0.0,0.0,83,0.00,,,0.00,Wunderground v.1.15,2013-10-23 05:15:00,
2013-10-23 01:20:00,72.3,66.8,29.79,West,267,0.0,0.0,83,0.00,,,0.00,Wunderground v.1.15,2013-10-23 05:20:00,
2013-10-23 01:25:00,72.3,66.8,29.79,West,267,0.0,0.0,83,0.00,,,0.00,Wunderground v.1.15,2013-10-23 05:25:00,
2013-10-23 01:30:00,72.2,66.7,29.79,West,267,0.0,0.0,83,0.00,,,0.00,Wunderground v.1.15,2013-10-23 05:30:00,
2013-10-23 01:35:00,72.2,66.7,29.80,West,267,0.0,0.0,83,0.00,,,0.00,Wunderground v.1.15,2013-10-23 05:35:00,
2013-10-23 01:40:00,72.2,66.7,29.80,West,267,0.0,0.0,83,0.00,,,0.00,Wunderground v.1.15,2013-10-23 05:40:00,
2013-10-23 01:45:00,72.2,66.7,29.80,West,267,0.0,0.0,83,0.00,,,0.00,Wunderground v.1.15,2013-10-23 05:45:00,
2013-10-23 01:50:00,72.3,66.8,29.80,West,267,0.0,0.0,83,0.00,,,0.00,Wunderground v.1.15,2013-10-23 05:50:00,
2013-10-23 01:55:00,72.4,66.9,29.80,West,267,0.0,0.0,83,0.00,,,0.00,Wunderground v.1.15,2013-10-23 05:55:00,
2013-10-23 02:05:00,72.5,67.0,29.79,West,267,0.0,0.0,83,0.00,,,0.00,Wunderground v.1.15,2013-10-23 06:05:00,
2013-10-23 02:15:00,72.6,67.1,29.79,West,267,0.0,0.0,83,0.00,,,0.00,Wunderground v.1.15,2013-10-23 06:15:00,
2013-10-23 02:20:00,72.6,67.1,29.80,West,267,0.0,0.0,83,0.00,,,0.00,Wunderground v.1.15,2013-10-23 06:20:00,
2013-10-23 02:25:00,72.5,67.0,29.80,West,267,0.0,0.0,83,0.00,,,0.00,Wunderground v.1.15,2013-10-23 06:25:00,
2013-10-23 02:30:00,72.6,67.1,29.80,West,267,0.0,0.0,83,0.00,,,0.00,Wunderground v.1.15,2013-10-23 06:30:00,
2013-10-23 02:35:00,72.6,67.1,29.80,West,267,0.0,0.0,83,0.00,,,0.00,Wunderground v.1.15,2013-10-23 06:35:00,
2013-10-23 02:40:00,72.6,67.1,29.79,West,267,0.0,0.0,83,0.00,,,0.00,Wunderground v.1.15,2013-10-23 06:40:00,
2013-10-23 02:45:00,72.5,67.0,29.79,West,267,0.0,0.0,83,0.00,,,0.00,Wunderground v.1.15,2013-10-23 06:45:00,
2013-10-23 02:50:00,72.5,67.0,29.79,West,267,0.0,0.0,83,0.00,,,0.00,Wunderground v.1.15,2013-10-23 06:50:00,
2013-10-23 02:55:00,72.5,67.0,29.79,West,267,0.0,0.0,83,0.00,,,0.00,Wunderground v.1.15,2013-10-23 06:55:00,
2013-10-23 03:00:00,72.4,66.9,29.79,West,267,0.0,0.0,83,0.00,,,0.00,Wunderground v.1.15,2013-10-23 07:00:00,
2013-10-23 03:05:00,72.4,66.9,29.78,West,267,0.0,0.0,83,0.00,,,0.00,Wunderground v.1.15,2013-10-23 07:05:00,
2013-10-23 03:10:00,72.3,66.8,29.78,West,267,0.0,0.0,83,0.00,,,0.00,Wunderground v.1.15,2013-10-23 07:10:00,
2013-10-23 03:15:00,72.3,66.8,29.78,West,267,0.0,0.0,83,0.00,,,0.00,Wunderground v.1.15,2013-10-23 07:15:00,
2013-10-23 03:20:00,72.3,66.8,29.78,West,267,0.0,0.0,83,0.00,,,0.00,Wunderground v.1.15,2013-10-23 07:20:00,
2013-10-23 03:25:00,72.4,66.9,29.78,West,267,0.0,0.0,83,0.00,,,0.00,Wunderground v.1.15,2013-10-23 07:25:00,
2013-10-23 03:30:00,72.4,66.9,29.78,West,267,0.0,0.0,83,0.00,,,0.00,Wunderground v.1.15,2013-10-23 07:30:00,
2013-10-23 03:35:00,72.4,66.9,29.78,West,267,0.0,0.0,83,0.00,,,0.00,Wunderground v.1.15,2013-10-23 07:35:00,
2013-10-23 03:40:00,72.4,66.9,29.78,West,267,0.0,0.0,83,0.00,,,0.00,Wunderground v.1.15,2013-10-23 07:40:00,
2013-10-23 03:50:00,72.4,66.9,29.78,West,267,0.0,0.0,83,0.00,,,0.00,Wunderground v.1.15,2013-10-23 07:50:00,
2013-10-23 03:55:00,72.3,66.8,29.78,West,267,0.0,0.0,83,0.00,,,0.00,Wunderground v.1.15,2013-10-23 07:55:00,
2013-10-23 04:05:00,72.2,66.7,29.78,West,267,0.0,0.0,83,0.00,,,0.00,Wunderground v.1.15,2013-10-23 08:05:00,
2013-10-23 04:10:00,72.1,66.6,29.78,West,267,0.0,0.0,83,0.00,,,0.00,Wunderground v.1.15,2013-10-23 08:10:00,
2013-10-23 04:15:00,72.0,66.6,29.78,West,267,0.0,0.0,83,0.00,,,0.00,Wunderground v.1.15,2013-10-23 08:15:00,
2013-10-23 04:20:00,72.0,66.6,29.78,West,267,0.0,0.0,83,0.00,,,0.00,Wunderground v.1.15,2013-10-23 08:20:00,
2013-10-23 04:25:00,72.0,66.6,29.78,West,267,0.0,0.0,83,0.00,,,0.00,Wunderground v.1.15,2013-10-23 08:25:00,
2013-10-23 04:30:00,72.0,66.6,29.78,West,267,0.0,0.0,83,0.00,,,0.00,Wunderground v.1.15,2013-10-23 08:30:00,
2013-10-23 04:35:00,72.0,66.6,29.78,West,267,0.0,0.0,83,0.00,,,0.00,Wunderground v.1.15,2013-10-23 08:35:00,
2013-10-23 04:40:00,72.0,66.6,29.78,West,267,0.0,0.0,83,0.00,,,0.00,Wunderground v.1.15,2013-10-23 08:40:00,
2013-10-23 04:45:00,72.0,66.6,29.78,West,267,0.0,0.0,83,0.00,,,0.00,Wunderground v.1.15,2013-10-23 08:45:00,
2013-10-23 04:50:00,72.1,66.6,29.78,West,267,0.0,0.0,83,0.00,,,0.00,Wunderground v.1.15,2013-10-23 08:50:00,
2013-10-23 04:55:00,72.1,66.6,29.78,West,267,0.0,0.0,83,0.00,,,0.00,Wunderground v.1.15,2013-10-23 08:55:00,
2013-10-23 05:00:00,72.2,66.7,29.78,West,267,0.0,0.0,83,0.00,,,0.00,Wunderground v.1.15,2013-10-23 09:00:00,
2013-10-23 05:05:00,72.3,66.8,29.78,West,267,0.0,0.0,83,0.00,,,0.00,Wunderground v.1.15,2013-10-23 09:05:00,
2013-10-23 05:15:00,72.6,66.8,29.79,West,267,0.0,0.0,82,0.00,,,0.00,Wunderground v.1.15,2013-10-23 09:15:00,
2013-10-23 05:20:00,72.7,66.9,29.79,West,267,0.0,0.0,82,0.00,,,0.00,Wunderground v.1.15,2013-10-23 09:20:00,
2013-10-23 05:25:00,72.6,66.8,29.80,West,267,0.0,2.0,82,0.00,,,0.00,Wunderground v.1.15,2013-10-23 09:25:00,
2013-10-23 05:30:00,72.1,66.6,29.80,West,267,1.0,1.0,83,0.00,,,0.00,Wunderground v.1.15,2013-10-23 09:30:00,
2013-10-23 05:35:00,71.8,66.4,29.80,West,267,0.0,1.0,83,0.00,,,0.00,Wunderground v.1.15,2013-10-23 09:35:00,
2013-10-23 05:40:00,71.5,66.1,29.80,West,267,0.0,0.0,83,0.00,,,0.00,Wunderground v.1.15,2013-10-23 09:40:00,
2013-10-23 05:45:00,71.4,66.0,29.80,West,267,0.0,0.0,83,0.00,,,0.00,Wunderground v.1.15,2013-10-23 09:45:00,
2013-10-23 05:50:00,71.3,65.9,29.80,West,267,0.0,0.0,83,0.00,,,0.00,Wunderground v.1.15,2013-10-23 09:50:00,
2013-10-23 05:55:00,71.2,65.8,29.81,West,267,0.0,0.0,83,0.00,,,0.00,Wunderground v.1.15,2013-10-23 09:55:00,
2013-10-23 06:00:00,71.2,65.8,29.81,West,267,0.0,0.0,83,0.00,,,0.00,Wunderground v.1.15,2013-10-23 10:00:00,
2013-10-23 06:05:00,71.2,65.8,29.81,West,267,0.0,0.0,83,0.00,,,0.00,Wunderground v.1.15,2013-10-23 10:05:00,
2013-10-23 06:10:00,71.2,65.8,29.81,West,267,0.0,0.0,83,0.00,,,0.00,Wunderground v.1.15,2013-10-23 10:10:00,
2013-10-23 06:15:00,71.2,65.8,29.81,West,267,0.0,0.0,83,0.00,,,0.00,Wunderground v.1.15,2013-10-23 10:15:00,
2013-10-23 06:20:00,71.2,65.8,29.81,West,267,0.0,0.0,83,0.00,,,0.00,Wunderground v.1.15,2013-10-23 10:20:00,
2013-10-23 06:25:00,71.2,65.8,29.81,West,267,0.0,0.0,83,0.00,,,0.00,Wunderground v.1.15,2013-10-23 10:25:00,
2013-10-23 06:30:00,71.1,65.7,29.81,West,267,0.0,0.0,83,0.00,,,0.00,Wunderground v.1.15,2013-10-23 10:30:00,
2013-10-23 06:35:00,71.1,65.7,29.81,West,267,0.0,0.0,83,0.00,,,0.00,Wunderground v.1.15,2013-10-23 10:35:00,
2013-10-23 06:40:00,71.2,65.8,29.81,West,267,0.0,0.0,83,0.00,,,0.00,Wunderground v.1.15,2013-10-23 10:40:00,
2013-10-23 06:45:00,71.1,65.7,29.82,West,267,0.0,0.0,83,0.00,,,0.00,Wunderground v.1.15,2013-10-23 10:45:00,
2013-10-23 06:50:00,71.1,65.7,29.82,West,267,0.0,0.0,83,0.00,,,0.00,Wunderground v.1.15,2013-10-23 10:50:00,
2013-10-23 06:55:00,71.0,65.6,29.82,West,267,0.0,0.0,83,0.00,,,0.00,Wunderground v.1.15,2013-10-23 10:55:00,
2013-10-23 07:00:00,71.0,65.6,29.82,West,267,0.0,0.0,83,0.00,,,0.00,Wunderground v.1.15,2013-10-23 11:00:00,
2013-10-23 07:05:00,71.0,65.6,29.82,West,267,0.0,0.0,83,0.00,,,0.00,Wunderground v.1.15,2013-10-23 11:05:00,
2013-10-23 07:15:00,71.0,65.6,29.83,West,267,0.0,0.0,83,0.00,,,0.00,Wunderground v.1.15,2013-10-23 11:15:00,
2013-10-23 07:20:00,71.0,65.6,29.83,West,269,0.0,0.0,83,0.00,,,0.00,Wunderground v.1.15,2013-10-23 11:20:00,
2013-10-23 07:25:00,71.0,65.6,29.83,West,272,0.0,0.0,83,0.00,,,0.00,Wunderground v.1.15,2013-10-23 11:25:00,
2013-10-23 07:30:00,70.9,65.5,29.83,West,273,0.0,0.0,83,0.00,,,0.00,Wunderground v.1.15,2013-10-23 11:30:00,
2013-10-23 07:35:00,71.0,65.6,29.83,West,273,0.0,0.0,83,0.00,,,0.00,Wunderground v.1.15,2013-10-23 11:35:00,
2013-10-23 07:40:00,70.9,65.5,29.83,West,273,0.0,0.0,83,0.00,,,0.00,Wunderground v.1.15,2013-10-23 11:40:00,
2013-10-23 07:45:00,71.0,65.6,29.83,West,276,0.0,0.0,83,0.00,,,0.00,Wunderground v.1.15,2013-10-23 11:45:00,
2013-10-23 07:50:00,71.0,65.2,29.83,WNW,291,0.0,0.0,82,0.00,,,0.00,Wunderground v.1.15,2013-10-23 11:50:00,
2013-10-23 07:55:00,71.0,65.2,29.83,WNW,291,0.0,0.0,82,0.00,,,0.00,Wunderground v.1.15,2013-10-23 11:55:00,
2013-10-23 08:00:00,71.0,65.2,29.84,WNW,291,0.0,0.0,82,0.00,,,0.00,Wunderground v.1.15,2013-10-23 12:00:00,
2013-10-23 08:05:00,71.1,65.3,29.84,WNW,291,0.0,0.0,82,0.00,,,0.00,Wunderground v.1.15,2013-10-23 12:05:00,
2013-10-23 08:10:00,71.2,65.4,29.84,WNW,291,0.0,0.0,82,0.00,,,0.00,Wunderground v.1.15,2013-10-23 12:10:00,
2013-10-23 08:20:00,71.4,65.6,29.84,NW,309,0.0,0.0,82,0.00,,,0.00,Wunderground v.1.15,2013-10-23 12:20:00,
2013-10-23 08:25:00,71.5,65.7,29.84,NW,309,0.0,0.0,82,0.00,,,0.00,Wunderground v.1.15,2013-10-23 12:25:00,
2013-10-23 08:30:00,71.7,65.9,29.85,NW,309,0.0,0.0,82,0.00,,,0.00,Wunderground v.1.15,2013-10-23 12:30:00,
2013-10-23 08:35:00,72.2,66.4,29.85,NW,305,0.0,0.0,82,0.00,,,0.00,Wunderground v.1.15,2013-10-23 12:35:00,
2013-10-23 08:40:00,72.3,66.5,29.85,NW,304,0.0,0.0,82,0.00,,,0.00,Wunderground v.1.15,2013-10-23 12:40:00,
2013-10-23 08:45:00,72.2,66.4,29.86,WNW,302,0.0,0.0,82,0.00,,,0.00,Wunderground v.1.15,2013-10-23 12:45:00,
2013-10-23 08:50:00,72.3,66.5,29.86,NW,315,0.0,0.0,82,0.00,,,0.00,Wunderground v.1.15,2013-10-23 12:50:00,
2013-10-23 08:55:00,72.1,66.3,29.86,NW,315,0.0,0.0,82,0.00,,,0.00,Wunderground v.1.15,2013-10-23 12:55:00,
2013-10-23 09:00:00,72.2,66.4,29.86,NW,321,0.0,1.0,82,0.00,,,0.00,Wunderground v.1.15,2013-10-23 13:00:00,
2013-10-23 09:05:00,72.3,66.5,29.86,NW,321,0.0,1.0,82,0.00,,,0.00,Wunderground v.1.15,2013-10-23 13:05:00,
2013-10-23 09:10:00,72.3,66.5,29.87,NNW,339,0.0,0.0,82,0.00,,,0.00,Wunderground v.1.15,2013-10-23 13:10:00,
2013-10-23 09:15:00,72.3,66.5,29.87,NNW,348,0.0,1.0,82,0.00,,,0.00,Wunderground v.1.15,2013-10-23 13:15:00,
2013-10-23 09:20:00,72.3,66.5,29.87,NNW,348,0.0,0.0,82,0.00,,,0.00,Wunderground v.1.15,2013-10-23 13:20:00,
2013-10-23 09:25:00,72.2,66.4,29.87,NNW,348,1.0,1.0,82,0.00,,,0.00,Wunderground v.1.15,2013-10-23 13:25:00,
2013-10-23 09:30:00,72.4,66.6,29.87,NNW,348,1.0,1.0,82,0.00,,,0.00,Wunderground v.1.15,2013-10-23 13:30:00,
2013-10-23 09:35:00,72.5,66.7,29.88,NNW,346,1.0,2.0,82,0.00,,,0.00,Wunderground v.1.15,2013-10-23 13:35:00,
2013-10-23 09:40:00,72.4,66.9,29.88,NNW,344,2.0,6.0,83,0.00,,,0.00,Wunderground v.1.15,2013-10-23 13:40:00,
2013-10-23 09:45:00,72.2,66.7,29.88,North,355,3.0,6.0,83,0.00,,,0.00,Wunderground v.1.15,2013-10-23 13:45:00,
2013-10-23 09:50:00,72.1,66.6,29.88,North,355,3.0,3.0,83,0.00,,,0.00,Wunderground v.1.15,2013-10-23 13:50:00,
2013-10-23 09:55:00,72.1,66.6,29.88,North,355,3.0,3.0,83,0.00,,,0.00,Wunderground v.1.15,2013-10-23 13:55:00,
2013-10-23 10:00:00,72.0,66.6,29.88,North,355,2.0,2.0,83,0.00,,,0.00,Wunderground v.1.15,2013-10-23 14:00:00,
2013-10-23 10:05:00,71.9,66.5,29.88,North,351,1.0,2.0,83,0.00,,,0.00,Wunderground v.1.15,2013-10-23 14:05:00,
2013-10-23 10:10:00,71.7,66.3,29.89,North,350,0.0,0.0,83,0.00,,,0.00,Wunderground v.1.15,2013-10-23 14:10:00,
2013-10-23 10:15:00,71.5,66.1,29.89,North,360,0.0,2.0,83,0.00,,,0.00,Wunderground v.1.15,2013-10-23 14:15:00,
2013-10-23 10:20:00,71.5,66.1,29.89,North,360,1.0,2.0,83,0.00,,,0.00,Wunderground v.1.15,2013-10-23 14:20:00,
2013-10-23 10:25:00,71.9,66.5,29.89,North,355,1.0,2.0,83,0.00,,,0.00,Wunderground v.1.15,2013-10-23 14:25:00,
2013-10-23 10:30:00,72.7,67.2,29.89,North,350,2.0,2.0,83,0.00,,,0.00,Wunderground v.1.15,2013-10-23 14:30:00,
2013-10-23 10:35:00,72.8,67.3,29.89,North,349,2.0,2.0,83,0.00,,,0.00,Wunderground v.1.15,2013-10-23 14:35:00,
2013-10-23 10:40:00,73.0,67.5,29.89,North,350,1.0,1.0,83,0.00,,,0.00,Wunderground v.1.15,2013-10-23 14:40:00,
2013-10-23 10:45:00,73.3,67.8,29.89,North,349,0.0,3.0,83,0.00,,,0.00,Wunderground v.1.15,2013-10-23 14:45:00,
2013-10-23 10:50:00,73.3,67.8,29.89,North,349,1.0,1.0,83,0.00,,,0.00,Wunderground v.1.15,2013-10-23 14:50:00,
2013-10-23 10:55:00,73.5,68.0,29.89,North,349,1.0,1.0,83,0.00,,,0.00,Wunderground v.1.15,2013-10-23 14:55:00,
2013-10-23 11:00:00,74.0,68.5,29.89,NNW,348,1.0,1.0,83,0.00,,,0.00,Wunderground v.1.15,2013-10-23 15:00:00,
2013-10-23 11:05:00,74.3,68.4,29.89,NNW,348,1.0,1.0,82,0.00,,,0.00,Wunderground v.1.15,2013-10-23 15:05:00,
2013-10-23 11:10:00,74.5,68.6,29.89,NNW,348,1.0,1.0,82,0.00,,,0.00,Wunderground v.1.15,2013-10-23 15:10:00,
2013-10-23 11:15:00,74.4,68.5,29.89,North,351,2.0,2.0,82,0.00,,,0.00,Wunderground v.1.15,2013-10-23 15:15:00,
2013-10-23 11:20:00,74.9,69.0,29.89,North,355,4.0,4.0,82,0.00,,,0.00,Wunderground v.1.15,2013-10-23 15:20:00,
2013-10-23 11:25:00,75.7,69.1,29.89,North,360,5.0,5.0,80,0.00,,,0.00,Wunderground v.1.15,2013-10-23 15:25:00,
2013-10-23 11:30:00,76.3,69.7,29.89,North,355,4.0,4.0,80,0.00,,,0.00,Wunderground v.1.15,2013-10-23 15:30:00,
2013-10-23 11:40:00,77.3,69.5,29.88,North,355,5.0,5.0,77,0.00,,,0.00,Wunderground v.1.15,2013-10-23 15:40:00,
2013-10-23 11:45:00,77.1,69.7,29.88,North,355,5.0,10.0,78,0.00,,,0.00,Wunderground v.1.15,2013-10-23 15:45:00,
2013-10-23 11:50:00,77.1,68.6,29.88,North,355,5.0,5.0,75,0.00,,,0.00,Wunderground v.1.15,2013-10-23 15:50:00,
2013-10-23 11:55:00,76.9,68.4,29.88,North,355,4.0,5.0,75,0.00,,,0.00,Wunderground v.1.15,2013-10-23 15:55:00,
2013-10-23 12:00:00,76.9,68.4,29.88,North,350,3.0,3.0,75,0.00,,,0.00,Wunderground v.1.15,2013-10-23 16:00:00,
2013-10-23 12:05:00,76.5,68.0,29.88,North,349,2.0,3.0,75,0.00,,,0.00,Wunderground v.1.15,2013-10-23 16:05:00,
2013-10-23 12:10:00,76.7,68.6,29.88,NNW,347,2.0,2.0,76,0.00,,,0.00,Wunderground v.1.15,2013-10-23 16:10:00,
2013-10-23 12:15:00,76.4,67.9,29.88,NNW,347,2.0,4.0,75,0.00,,,0.00,Wunderground v.1.15,2013-10-23 16:15:00,
2013-10-23 12:20:00,76.4,68.3,29.88,NNW,347,1.0,1.0,76,0.00,,,0.00,Wunderground v.1.15,2013-10-23 16:20:00,
2013-10-23 12:25:00,76.6,68.1,29.88,NNW,345,1.0,1.0,75,0.00,,,0.00,Wunderground v.1.15,2013-10-23 16:25:00,
2013-10-23 12:30:00,76.8,68.3,29.88,NNW,346,1.0,1.0,75,0.00,,,0.00,Wunderground v.1.15,2013-10-23 16:30:00,
2013-10-23 12:35:00,76.7,67.8,29.88,NNW,348,1.0,2.0,74,0.00,,,0.00,Wunderground v.1.15,2013-10-23 16:35:00,
2013-10-23 12:40:00,76.5,68.0,29.87,North,349,3.0,3.0,75,0.00,,,0.00,Wunderground v.1.15,2013-10-23 16:40:00,
2013-10-23 12:45:00,76.7,68.6,29.87,North,349,2.0,3.0,76,0.00,,,0.00,Wunderground v.1.15,2013-10-23 16:45:00,
2013-10-23 12:50:00,77.1,68.2,29.87,North,349,1.0,4.0,74,0.00,,,0.00,Wunderground v.1.15,2013-10-23 16:50:00,
2013-10-23 12:55:00,77.6,69.4,29.87,North,349,1.0,4.0,76,0.00,,,0.00,Wunderground v.1.15,2013-10-23 16:55:00,
2013-10-23 13:00:00,78.2,69.6,29.87,North,349,1.0,1.0,75,0.00,,,0.00,Wunderground v.1.15,2013-10-23 17:00:00,
2013-10-23 13:05:00,78.5,69.5,29.87,NNW,346,0.0,1.0,74,0.00,,,0.00,Wunderground v.1.15,2013-10-23 17:05:00,
2013-10-23 13:10:00,78.2,68.4,29.87,NNW,345,1.0,1.0,72,0.00,,,0.00,Wunderground v.1.15,2013-10-23 17:10:00,
2013-10-23 13:15:00,78.5,69.5,29.87,NNW,345,1.0,1.0,74,0.00,,,0.00,Wunderground v.1.15,2013-10-23 17:15:00,
2013-10-23 13:20:00,78.7,68.9,29.87,NNW,334,0.0,0.0,72,0.00,,,0.00,Wunderground v.1.15,2013-10-23 17:20:00,
2013-10-23 13:25:00,78.8,68.6,29.87,NNW,334,0.0,0.0,71,0.00,,,0.00,Wunderground v.1.15,2013-10-23 17:25:00,
2013-10-23 13:30:00,79.0,68.8,29.86,NNW,334,0.0,0.0,71,0.00,,,0.00,Wunderground v.1.15,2013-10-23 17:30:00,
2013-10-23 13:35:00,79.3,67.4,29.86,NNW,335,1.0,3.0,67,0.00,,,0.00,Wunderground v.1.15,2013-10-23 17:35:00,
2013-10-23 13:40:00,79.7,69.0,29.86,NNW,334,1.0,1.0,70,0.00,,,0.00,Wunderground v.1.15,2013-10-23 17:40:00,
2013-10-23 13:45:00,80.4,69.7,29.86,NNW,334,0.0,1.0,70,0.00,,,0.00,Wunderground v.1.15,2013-10-23 17:45:00,
2013-10-23 13:50:00,80.7,69.6,29.86,NNW,334,0.0,0.0,69,0.00,,,0.00,Wunderground v.1.15,2013-10-23 17:50:00,
2013-10-23 13:55:00,80.8,67.9,29.85,North,349,0.0,0.0,65,0.00,,,0.00,Wunderground v.1.15,2013-10-23 17:55:00,
2013-10-23 14:00:00,80.9,67.6,29.85,NW,312,1.0,1.0,64,0.00,,,0.00,Wunderground v.1.15,2013-10-23 18:00:00,
2013-10-23 14:05:00,81.2,67.4,29.85,NW,311,0.0,1.0,63,0.00,,,0.00,Wunderground v.1.15,2013-10-23 18:05:00,
2013-10-23 14:10:00,81.2,66.0,29.85,NW,313,0.0,1.0,60,0.00,,,0.00,Wunderground v.1.15,2013-10-23 18:10:00,
2013-10-23 14:15:00,81.6,67.3,29.84,NW,320,1.0,1.0,62,0.00,,,0.00,Wunderground v.1.15,2013-10-23 18:15:00,
2013-10-23 14:20:00,81.9,67.1,29.84,NW,318,1.0,2.0,61,0.00,,,0.00,Wunderground v.1.15,2013-10-23 18:20:00,
2013-10-23 14:25:00,82.1,67.3,29.84,NW,320,1.0,2.0,61,0.00,,,0.00,Wunderground v.1.15,2013-10-23 18:25:00,
2013-10-23 14:30:00,82.5,67.7,29.84,NW,313,1.0,1.0,61,0.00,,,0.00,Wunderground v.1.15,2013-10-23 18:30:00,
2013-10-23 14:35:00,82.8,66.0,29.84,NW,326,1.0,3.0,57,0.00,,,0.00,Wunderground v.1.15,2013-10-23 18:35:00,
2013-10-23 14:40:00,82.8,66.5,29.84,NNW,327,1.0,1.0,58,0.00,,,0.00,Wunderground v.1.15,2013-10-23 18:40:00,
2013-10-23 14:45:00,82.8,67.0,29.83,NNW,336,1.0,1.0,59,0.00,,,0.00,Wunderground v.1.15,2013-10-23 18:45:00,
2013-10-23 14:50:00,83.0,66.2,29.83,NNW,348,1.0,1.0,57,0.00,,,0.00,Wunderground v.1.15,2013-10-23 18:50:00,
2013-10-23 14:55:00,83.1,66.3,29.83,NNW,348,1.0,1.0,57,0.00,,,0.00,Wunderground v.1.15,2013-10-23 18:55:00,
2013-10-23 15:00:00,83.3,65.4,29.83,NNW,346,1.0,1.0,55,0.00,,,0.00,Wunderground v.1.15,2013-10-23 19:00:00,
2013-10-23 15:06:00,82.8,64.5,29.83,North,349,2.0,2.0,54,0.00,,,0.00,Wunderground v.1.15,2013-10-23 19:06:00,
2013-10-23 15:10:00,82.6,65.8,29.83,North,355,2.0,2.0,57,0.00,,,0.00,Wunderground v.1.15,2013-10-23 19:10:00,
2013-10-23 15:15:00,83.0,65.7,29.83,North,355,1.0,2.0,56,0.00,,,0.00,Wunderground v.1.15,2013-10-23 19:15:00,
2013-10-23 15:20:00,83.2,65.4,29.83,NNE,13,0.0,0.0,55,0.00,,,0.00,Wunderground v.1.15,2013-10-23 19:20:00,
2013-10-23 15:25:00,83.4,66.1,29.83,North,10,0.0,0.0,56,0.00,,,0.00,Wunderground v.1.15,2013-10-23 19:25:00,
2013-10-23 15:30:00,83.8,66.4,29.83,North,9,0.0,0.0,56,0.00,,,0.00,Wunderground v.1.15,2013-10-23 19:30:00,
2013-10-23 15:35:00,83.8,65.4,29.83,NW,313,1.0,5.0,54,0.00,,,0.00,Wunderground v.1.15,2013-10-23 19:35:00,
2013-10-23 15:40:00,83.6,65.7,29.83,NW,311,1.0,1.0,55,0.00,,,0.00,Wunderground v.1.15,2013-10-23 19:40:00,
2013-10-23 15:45:00,83.8,66.4,29.83,NW,308,0.0,1.0,56,0.00,,,0.00,Wunderground v.1.15,2013-10-23 19:45:00,
2013-10-23 15:50:00,83.9,64.4,29.84,NW,306,0.0,1.0,52,0.00,,,0.00,Wunderground v.1.15,2013-10-23 19:50:00,
2013-10-23 15:55:00,83.8,63.7,29.84,NW,304,0.0,1.0,51,0.00,,,0.00,Wunderground v.1.15,2013-10-23 19:55:00,
2013-10-23 16:00:00,83.7,62.5,29.84,NW,309,1.0,3.0,49,0.00,,,0.00,Wunderground v.1.15,2013-10-23 20:00:00,
2013-10-23 16:06:00,83.2,62.1,29.84,NNW,345,2.0,3.0,49,0.00,,,0.00,Wunderground v.1.15,2013-10-23 20:06:00,
2013-10-23 16:10:00,82.8,61.1,29.84,NNW,345,2.0,6.0,48,0.00,,,0.00,Wunderground v.1.15,2013-10-23 20:10:00,
2013-10-23 16:20:00,82.4,62.5,29.84,NNW,346,1.0,1.0,51,0.00,,,0.00,Wunderground v.1.15,2013-10-23 20:20:00,
2013-10-23 16:25:00,82.6,62.6,29.84,NNW,344,0.0,1.0,51,0.00,,,0.00,Wunderground v.1.15,2013-10-23 20:25:00,
2013-10-23 16:30:00,82.8,63.4,29.85,NNW,342,0.0,0.0,52,0.00,,,0.00,Wunderground v.1.15,2013-10-23 20:30:00,
2013-10-23 16:40:00,81.7,60.7,29.85,NNW,342,0.0,4.0,49,0.00,,,0.00,Wunderground v.1.15,2013-10-23 20:40:00,
2013-10-23 16:45:00,80.6,59.7,29.85,NNW,348,1.0,4.0,49,0.00,,,0.00,Wunderground v.1.15,2013-10-23 20:45:00,
2013-10-23 16:50:00,80.3,60.0,29.85,NNW,345,2.0,2.0,50,0.00,,,0.00,Wunderground v.1.15,2013-10-23 20:50:00,
2013-10-23 16:55:00,80.6,59.7,29.85,NNW,348,1.0,2.0,49,0.00,,,0.00,Wunderground v.1.15,2013-10-23 20:55:00,
2013-10-23 17:00:00,80.4,60.1,29.85,North,349,1.0,1.0,50,0.00,,,0.00,Wunderground v.1.15,2013-10-23 21:00:00,
2013-10-23 17:05:00,80.5,61.3,29.85,NNW,348,1.0,1.0,52,0.00,,,0.00,Wunderground v.1.15,2013-10-23 21:05:00,
2013-10-23 17:10:00,80.4,61.2,29.85,North,349,1.0,1.0,52,0.00,,,0.00,Wunderground v.1.15,2013-10-23 21:10:00,
2013-10-23 17:15:00,80.0,61.3,29.85,North,349,0.0,1.0,53,0.00,,,0.00,Wunderground v.1.15,2013-10-23 21:15:00,
2013-10-23 17:20:00,79.4,60.8,29.85,North,355,0.0,0.0,53,0.00,,,0.00,Wunderground v.1.15,2013-10-23 21:20:00,
2013-10-23 17:30:00,79.2,61.6,29.85,North,360,0.0,0.0,55,0.00,,,0.00,Wunderground v.1.15,2013-10-23 21:30:00,
2013-10-23 17:35:00,79.4,61.3,29.85,North,360,0.0,0.0,54,0.00,,,0.00,Wunderground v.1.15,2013-10-23 21:35:00,
2013-10-23 17:40:00,79.3,61.2,29.86,North,360,0.0,3.0,54,0.00,,,0.00,Wunderground v.1.15,2013-10-23 21:40:00,
2013-10-23 17:45:00,78.7,60.1,29.85,North,360,0.0,3.0,53,0.00,,,0.00,Wunderground v.1.15,2013-10-23 21:45:00,
2013-10-23 17:50:00,78.0,60.5,29.86,North,360,0.0,0.0,55,0.00,,,0.00,Wunderground v.1.15,2013-10-23 21:50:00,
2013-10-23 17:55:00,77.8,61.3,29.86,North,360,0.0,0.0,57,0.00,,,0.00,Wunderground v.1.15,2013-10-23 21:55:00,
2013-10-23 18:00:00,77.6,62.1,29.86,North,360,0.0,0.0,59,0.00,,,0.00,Wunderground v.1.15,2013-10-23 22:00:00,
2013-10-23 18:05:00,77.2,62.2,29.86,North,360,0.0,0.0,60,0.00,,,0.00,Wunderground v.1.15,2013-10-23 22:05:00,
2013-10-23 18:10:00,76.7,61.8,29.86,North,360,0.0,0.0,60,0.00,,,0.00,Wunderground v.1.15,2013-10-23 22:10:00,
2013-10-23 18:15:00,76.1,61.7,29.86,North,360,0.0,0.0,61,0.00,,,0.00,Wunderground v.1.15,2013-10-23 22:15:00,
2013-10-23 18:20:00,75.3,60.9,29.87,North,360,0.0,0.0,61,0.00,,,0.00,Wunderground v.1.15,2013-10-23 22:20:00,
2013-10-23 18:25:00,74.7,60.4,29.87,North,360,0.0,0.0,61,0.00,,,0.00,Wunderground v.1.15,2013-10-23 22:25:00,
2013-10-23 18:30:00,74.2,59.9,29.87,North,360,0.0,0.0,61,0.00,,,0.00,Wunderground v.1.15,2013-10-23 22:30:00,
2013-10-23 18:35:00,73.8,60.0,29.88,North,360,0.0,0.0,62,0.00,,,0.00,Wunderground v.1.15,2013-10-23 22:35:00,
2013-10-23 18:40:00,73.4,60.0,29.87,North,360,0.0,0.0,63,0.00,,,0.00,Wunderground v.1.15,2013-10-23 22:40:00,
2013-10-23 18:45:00,72.9,59.6,29.88,North,360,0.0,0.0,63,0.00,,,0.00,Wunderground v.1.15,2013-10-23 22:45:00,
2013-10-23 18:50:00,72.4,59.5,29.88,North,360,0.0,0.0,64,0.00,,,0.00,Wunderground v.1.15,2013-10-23 22:50:00,
2013-10-23 18:55:00,71.8,59.0,29.89,North,360,0.0,0.0,64,0.00,,,0.00,Wunderground v.1.15,2013-10-23 22:55:00,
2013-10-23 19:00:00,71.3,58.5,29.89,North,360,0.0,0.0,64,0.00,,,0.00,Wunderground v.1.15,2013-10-23 23:00:00,
2013-10-23 19:05:00,71.0,59.1,29.89,North,360,0.0,0.0,66,0.00,,,0.00,Wunderground v.1.15,2013-10-23 23:05:00,
2013-10-23 19:10:00,70.6,59.1,29.89,North,360,0.0,0.0,67,0.00,,,0.00,Wunderground v.1.15,2013-10-23 23:10:00,
2013-10-23 19:15:00,70.2,59.1,29.89,North,360,0.0,0.0,68,0.00,,,0.00,Wunderground v.1.15,2013-10-23 23:15:00,
2013-10-23 19:20:00,69.8,58.8,29.89,North,360,0.0,0.0,68,0.00,,,0.00,Wunderground v.1.15,2013-10-23 23:20:00,
2013-10-23 19:25:00,69.4,58.8,29.89,North,360,0.0,0.0,69,0.00,,,0.00,Wunderground v.1.15,2013-10-23 23:25:00,
2013-10-23 19:30:00,69.0,58.8,29.90,North,360,0.0,0.0,70,0.00,,,0.00,Wunderground v.1.15,2013-10-23 23:30:00,
2013-10-23 19:35:00,68.6,58.8,29.90,North,360,0.0,0.0,71,0.00,,,0.00,Wunderground v.1.15,2013-10-23 23:35:00,
2013-10-23 19:40:00,68.0,58.6,29.90,North,360,0.0,0.0,72,0.00,,,0.00,Wunderground v.1.15,2013-10-23 23:40:00,
2013-10-23 19:45:00,67.6,58.6,29.90,North,360,0.0,0.0,73,0.00,,,0.00,Wunderground v.1.15,2013-10-23 23:45:00,
2013-10-23 19:50:00,67.1,58.5,29.90,North,360,0.0,0.0,74,0.00,,,0.00,Wunderground v.1.15,2013-10-23 23:50:00,
2013-10-23 19:55:00,66.7,58.1,29.90,North,360,0.0,0.0,74,0.00,,,0.00,Wunderground v.1.15,2013-10-23 23:55:00,
2013-10-23 20:00:00,66.1,57.9,29.90,North,360,0.0,0.0,75,0.00,,,0.00,Wunderground v.1.15,2013-10-24 00:00:00,
2013-10-23 20:05:00,65.6,57.1,29.91,North,360,0.0,0.0,74,0.00,,,0.00,Wunderground v.1.15,2013-10-24 00:05:00,
2013-10-23 20:15:00,65.0,56.9,29.91,North,360,0.0,0.0,75,0.00,,,0.00,Wunderground v.1.15,2013-10-24 00:15:00,
2013-10-23 20:20:00,64.8,57.1,29.91,North,360,0.0,0.0,76,0.00,,,0.00,Wunderground v.1.15,2013-10-24 00:20:00,
2013-10-23 20:25:00,64.6,56.9,29.92,North,360,0.0,0.0,76,0.00,,,0.00,Wunderground v.1.15,2013-10-24 00:25:00,
2013-10-23 20:30:00,64.4,57.0,29.92,North,360,0.0,0.0,77,0.00,,,0.00,Wunderground v.1.15,2013-10-24 00:30:00,
2013-10-23 20:35:00,64.3,57.3,29.92,North,360,0.0,0.0,78,0.00,,,0.00,Wunderground v.1.15,2013-10-24 00:35:00,
2013-10-23 20:40:00,64.1,57.1,29.92,North,360,0.0,0.0,78,0.00,,,0.00,Wunderground v.1.15,2013-10-24 00:40:00,
2013-10-23 20:45:00,64.0,57.0,29.92,North,360,0.0,0.0,78,0.00,,,0.00,Wunderground v.1.15,2013-10-24 00:45:00,
2013-10-23 20:50:00,64.0,57.4,29.92,North,360,0.0,0.0,79,0.00,,,0.00,Wunderground v.1.15,2013-10-24 00:50:00,
2013-10-23 21:00:00,64.0,57.7,29.92,North,360,0.0,0.0,80,0.00,,,0.00,Wunderground v.1.15,2013-10-24 01:00:00,
2013-10-23 21:05:00,64.1,57.8,29.92,North,360,0.0,0.0,80,0.00,,,0.00,Wunderground v.1.15,2013-10-24 01:05:00,
2013-10-23 21:10:00,64.1,57.8,29.92,North,360,0.0,0.0,80,0.00,,,0.00,Wunderground v.1.15,2013-10-24 01:10:00,
2013-10-23 21:15:00,64.2,57.9,29.92,North,360,0.0,0.0,80,0.00,,,0.00,Wunderground v.1.15,2013-10-24 01:15:00,
2013-10-23 21:20:00,64.3,57.6,29.92,North,360,0.0,0.0,79,0.00,,,0.00,Wunderground v.1.15,2013-10-24 01:20:00,
2013-10-23 21:25:00,64.5,57.8,29.92,North,360,0.0,0.0,79,0.00,,,0.00,Wunderground v.1.15,2013-10-24 01:25:00,
2013-10-23 21:30:00,64.6,57.9,29.92,North,360,0.0,0.0,79,0.00,,,0.00,Wunderground v.1.15,2013-10-24 01:30:00,
2013-10-23 21:35:00,64.7,58.0,29.93,North,360,0.0,0.0,79,0.00,,,0.00,Wunderground v.1.15,2013-10-24 01:35:00,
2013-10-23 21:40:00,64.8,58.1,29.93,North,360,0.0,0.0,79,0.00,,,0.00,Wunderground v.1.15,2013-10-24 01:40:00,
2013-10-23 21:45:00,64.7,58.0,29.94,North,360,0.0,0.0,79,0.00,,,0.00,Wunderground v.1.15,2013-10-24 01:45:00,
2013-10-23 21:50:00,64.7,58.0,29.94,North,360,0.0,0.0,79,0.00,,,0.00,Wunderground v.1.15,2013-10-24 01:50:00,
2013-10-23 21:55:00,64.6,57.9,29.94,North,360,0.0,0.0,79,0.00,,,0.00,Wunderground v.1.15,2013-10-24 01:55:00,
2013-10-23 22:00:00,64.5,57.8,29.94,North,360,0.0,0.0,79,0.00,,,0.00,Wunderground v.1.15,2013-10-24 02:00:00,
2013-10-23 22:05:00,64.4,57.7,29.94,North,360,0.0,0.0,79,0.00,,,0.00,Wunderground v.1.15,2013-10-24 02:05:00,
2013-10-23 22:10:00,64.3,57.6,29.94,North,360,0.0,0.0,79,0.00,,,0.00,Wunderground v.1.15,2013-10-24 02:10:00,
2013-10-23 22:15:00,64.3,57.6,29.95,North,360,0.0,0.0,79,0.00,,,0.00,Wunderground v.1.15,2013-10-24 02:15:00,
2013-10-23 22:20:00,64.2,57.9,29.95,North,360,0.0,0.0,80,0.00,,,0.00,Wunderground v.1.15,2013-10-24 02:20:00,
2013-10-23 22:25:00,64.2,57.9,29.96,North,360,0.0,0.0,80,0.00,,,0.00,Wunderground v.1.15,2013-10-24 02:25:00,
2013-10-23 22:30:00,64.2,57.9,29.96,North,360,0.0,0.0,80,0.00,,,0.00,Wunderground v.1.15,2013-10-24 02:30:00,
2013-10-23 22:35:00,64.2,57.9,29.96,North,360,0.0,0.0,80,0.00,,,0.00,Wunderground v.1.15,2013-10-24 02:35:00,
2013-10-23 22:40:00,64.2,57.9,29.96,North,360,0.0,0.0,80,0.00,,,0.00,Wunderground v.1.15,2013-10-24 02:40:00,
2013-10-23 22:45:00,64.2,57.9,29.97,North,360,0.0,0.0,80,0.00,,,0.00,Wunderground v.1.15,2013-10-24 02:45:00,
2013-10-23 22:50:00,64.2,57.9,29.97,North,360,0.0,0.0,80,0.00,,,0.00,Wunderground v.1.15,2013-10-24 02:50:00,
2013-10-23 22:55:00,64.1,57.8,29.97,North,360,0.0,0.0,80,0.00,,,0.00,Wunderground v.1.15,2013-10-24 02:55:00,
2013-10-23 23:00:00,64.1,57.8,29.97,North,360,0.0,0.0,80,0.00,,,0.00,Wunderground v.1.15,2013-10-24 03:00:00,
2013-10-23 23:05:00,64.0,57.7,29.97,North,360,0.0,0.0,80,0.00,,,0.00,Wunderground v.1.15,2013-10-24 03:05:00,
2013-10-23 23:10:00,64.0,58.1,29.97,North,360,0.0,0.0,81,0.00,,,0.00,Wunderground v.1.15,2013-10-24 03:10:00,
2013-10-23 23:15:00,63.9,58.0,29.98,North,360,0.0,0.0,81,0.00,,,0.00,Wunderground v.1.15,2013-10-24 03:15:00,
2013-10-23 23:20:00,63.8,57.5,29.98,North,360,0.0,0.0,80,0.00,,,0.00,Wunderground v.1.15,2013-10-24 03:20:00,
2013-10-23 23:25:00,63.8,57.9,29.98,North,360,0.0,0.0,81,0.00,,,0.00,Wunderground v.1.15,2013-10-24 03:25:00,
2013-10-23 23:30:00,63.7,57.8,29.98,North,360,0.0,0.0,81,0.00,,,0.00,Wunderground v.1.15,2013-10-24 03:30:00,
2013-10-23 23:35:00,63.6,57.7,29.98,North,360,0.0,0.0,81,0.00,,,0.00,Wunderground v.1.15,2013-10-24 03:35:00,
2013-10-23 23:40:00,63.4,57.5,29.99,North,360,0.0,0.0,81,0.00,,,0.00,Wunderground v.1.15,2013-10-24 03:40:00,
2013-10-23 23:45:00,63.3,57.4,29.99,North,360,0.0,0.0,81,0.00,,,0.00,Wunderground v.1.15,2013-10-24 03:45:00,
2013-10-23 23:50:00,63.1,57.2,29.99,North,360,0.0,0.0,81,0.00,,,0.00,Wunderground v.1.15,2013-10-24 03:50:00,
2013-10-23 23:55:00,63.0,57.1,29.99,North,360,0.0,0.0,81,0.00,,,0.00,Wunderground v.1.15,2013-10-24 03:55:00,